This is the latest recevied weather packets stored in our database for station/object KN6KDD. If no packets are shown the sender has not sent any weather packets the latest 10 day(s).
| Time | Temp. | Humidity | Pressure | Rain* | Wind** | Luminosity | Snow |
|---|---|---|---|---|---|---|---|
| 1777302853 | 8.89° C | 91% | 1355.5 hPa | 0 mm | - | 113 W/m² | - |
| 1777302550 | 8.89° C | 92% | 1355.6 hPa | 0 mm | - | 108 W/m² | - |
| 1777302248 | 9.44° C | 92% | 1355.6 hPa | 0 mm | - | 91 W/m² | - |
| 1777301944 | 8.89° C | 91% | 1355.6 hPa | 0 mm | - | 80 W/m² | - |
| 1777301643 | 8.89° C | 91% | 1355.7 hPa | 0 mm | - | 81 W/m² | - |
| 1777301340 | 8.89° C | 94% | 1355.6 hPa | 0 mm | - | 93 W/m² | - |
| 1777301035 | 8.89° C | 95% | 1355.3 hPa | 0 mm | - | 105 W/m² | - |
| 1777300733 | 8.89° C | 96% | 1355.3 hPa | 0 mm | - | 98 W/m² | - |
| 1777300431 | 8.89° C | 96% | 1355.3 hPa | 0 mm | - | 63 W/m² | - |
| 1777300129 | 8.33° C | 95% | 1355.2 hPa | 0 mm | - | 45 W/m² | - |
| 1777299825 | 8.33° C | 96% | 1354.9 hPa | 0 mm | - | 40 W/m² | - |
| 1777299522 | 8.33° C | 95% | 1355.1 hPa | 0 mm | - | 35 W/m² | - |
| 1777299220 | 8.33° C | 95% | 1355.2 hPa | 0 mm | - | 34 W/m² | - |
| 1777298917 | 8.33° C | 95% | 1355.1 hPa | 0 mm | - | 34 W/m² | - |
| 1777298614 | 8.33° C | 93% | 1354.8 hPa | 0 mm | - | 31 W/m² | - |
| 1777298311 | 8.33° C | 94% | 1354.8 hPa | 0 mm | - | 33 W/m² | - |
| 1777298006 | 7.78° C | 95% | 1354.8 hPa | 0 mm | - | 32 W/m² | - |
| 1777297702 | 7.78° C | 96% | 1354.8 hPa | 0 mm | - | 23 W/m² | - |
| 1777297400 | 7.78° C | 96% | 1354.7 hPa | 0 mm | - | 16 W/m² | - |
| 1777297097 | 7.78° C | 97% | 1354.5 hPa | 0 mm | - | 13 W/m² | - |
| 1777296794 | 7.78° C | 97% | 1354.4 hPa | 0 mm | - | 8 W/m² | - |
| 1777296489 | 7.78° C | 96% | 1354.4 hPa | 0 mm | - | 6 W/m² | - |
| 1777296185 | 7.78° C | 96% | 1354.4 hPa | 0 mm | - | 4 W/m² | - |
| 1777295881 | 7.78° C | 96% | 1354.4 hPa | 0 mm | - | 3 W/m² | - |
| 1777295580 | 7.78° C | 96% | 1354.3 hPa | 0 mm | - | 1 W/m² | - |
* Rain latest hour (hover to see other rain measurements)
** Current wind speed in m/s (hover to see current wind gust speed)